星链-2485 (STARLINK-2485 )

导读 | 星芒AI

STARLINK-2485 是 SpaceX Starlink 项目中的一颗低轨通信卫星,旨在为全球用户提供高速互联网服务。该卫星属于 Starlink 群体部署的一部分,运行在约 550 公里的近地轨道上,采用先进的推进系统和激光通信技术,以提高网络效率和减少延迟。STARLINK-2485 于 2023 年通过 Falcon 9 火箭发射升空,是 SpaceX 扩展其全球宽带网络计划的重要组成部分。

基本信息
目录编号:
48142
目录名称:
STARLINK-2485
国际标识:
2021-027BC
轨道中心:
EARTH
卫星名称:
星链-2485
卫星全名:
星链-2485 (STARLINK-2485 )
卫星状态:
在轨 (已飞行1716 天)
发射日期:
2021-04-07 UTC
国别 :
美国 (US)
星等 :
--
轨道信息
数据来源 国际轨道数据 AOE轨道数据
星历时间 2025-12-17T23:09:23+0800
11小时前
查看轨道信息
2025-12-16T10:00:00+0800
2天前
查看轨道信息
半长轴 6925.366km 6925.369km
偏心率 0.0001404 0.0001573
轨道倾角 53.057° 53.052°
近地点辐角 77.784° 92.891°
升交点赤经 159.994° 166.942°
平近点角 282.331° 146.707°
近地点 546.258km 546.144km
远地点 548.204km 548.324km
周期 95.592分钟 95.593分钟
每日圈数 15.063946 15.063934
详细信息
固有亮度:
5
最大亮度:
2.5
卫星平台:
Starlink V1.0
覆盖范围:
全球
运营商:
太空探索技术公司
运营商所在国:
美国
制造商(研发单位):
太空探索技术公司
制造商所在国:
美国
使用方式:
暂无
卫星简介
星链(Starlink)计划是由太空探索技术公司(SpaceX)提出的一个巨型低轨卫星互联网星座项目,计划在2019年至2024年间在太空搭建由约1.2万颗卫星组成的“星链”网络,其中1584颗将部署在地球上空550千米处的近地轨道,并从2020年开始工作。该卫星仍在工作。
2D轨道图
3D轨道图
轨道高度分析图
轨道倾角分析图
轨道综合分析图
查看轨道综合分析图